This is the latest recevied weather packets stored in our database for station/object N3FWE. If no packets are shown the sender has not sent any weather packets the latest 10 day(s).
| Time | Temp. | Humidity | Pressure | Rain* | Wind** | Luminosity | Snow |
|---|---|---|---|---|---|---|---|
| 1777935014 | 23.33° C | 40% | 1008.8 hPa | 0 mm | - | - | - |
| 1777934414 | 23.33° C | 40% | 1008.8 hPa | 0 mm | - | - | - |
| 1777933814 | 23.33° C | 40% | 1008.8 hPa | 0 mm | - | - | - |
| 1777933214 | 23.89° C | 40% | 1008.9 hPa | 0 mm | - | - | - |
| 1777932614 | 23.89° C | 39% | 1008.9 hPa | 0 mm | - | - | - |
| 1777932015 | 23.33° C | 40% | 1009 hPa | 0 mm | - | - | - |
| 1777931415 | 23.33° C | 40% | 1008.8 hPa | 0 mm | - | - | - |
| 1777930814 | 23.89° C | 39% | 1008.8 hPa | 0 mm | - | - | - |
| 1777930214 | 24.44° C | 37% | 1008.9 hPa | 0 mm | - | - | - |
| 1777929614 | 24.44° C | 38% | 1008.9 hPa | 0 mm | - | - | - |
| 1777929014 | 24.44° C | 37% | 1008.6 hPa | 0 mm | - | - | - |
| 1777928415 | 25° C | 35% | 1008.6 hPa | 0 mm | - | - | - |
| 1777927814 | 25° C | 35% | 1008.6 hPa | 0 mm | - | - | - |
| 1777927215 | 25° C | 34% | 1008.6 hPa | 0 mm | - | - | - |
| 1777926614 | 25° C | 35% | 1008.8 hPa | 0 mm | - | - | - |
| 1777926014 | 25° C | 35% | 1009.1 hPa | 0 mm | - | - | - |
| 1777925414 | 25° C | 34% | 1009.2 hPa | 0 mm | - | - | - |
| 1777924814 | 25° C | 35% | 1009.2 hPa | 0 mm | - | - | - |
| 1777924214 | 25° C | 34% | 1009.4 hPa | 0 mm | - | - | - |
| 1777923614 | 25° C | 35% | 1009.7 hPa | 0 mm | - | - | - |
| 1777923014 | 25° C | 37% | 1009.7 hPa | 0 mm | - | - | - |
| 1777922414 | 24.44° C | 35% | 1009.9 hPa | 0 mm | - | - | - |
| 1777921815 | 24.44° C | 36% | 1010 hPa | 0 mm | - | - | - |
| 1777921215 | 24.44° C | 35% | 1010.3 hPa | 0 mm | - | - | - |
| 1777920614 | 23.89° C | 37% | 1010.4 hPa | 0 mm | - | - | - |
* Rain latest hour (hover to see other rain measurements)
** Current wind speed in m/s (hover to see current wind gust speed)